Weather History for Reno, NV

Change the Weather History Date:

Saturday, December 29, 2012

  Actual Average Record
Temperature  
Mean Temperature 29 °F 34 °F  
Max Temperature 32 °F 44 °F 62 °F (1917)
Min Temperature 26 °F 24 °F -7 °F (1889)
Degree Days  
Heating Degree Days 36 31  
Month to date heating degree days 791 862  
Since 1 July heating degree days 1590 1965  
Cooling Degree Days 0 0  
Month to date cooling degree days 0 0  
Year to date cooling degree days 1272 839  
Moisture  
Dew Point 23 °F    
Average Humidity 82    
Maximum Humidity 92    
Minimum Humidity 72    
Precipitation  
Precipitation 0.01 in 0.04 in 0.69 in (1996)
Month to date precipitation 2.04 0.96  
Year to date precipitation 5.70 7.33  
Snow  
Snow 0.30 in 0.20 in 9.60 in (1992)
Month to date snowfall 5.6 4.4  
Since 1 July snowfall 6.4 7.9  
Snow Depth 2.00 in    
Sea Level Pressure  
Sea Level Pressure 30.07 in    
Wind  
Wind Speed 1 mph (South)    
Max Wind Speed 6 mph    
Max Gust Speed 9 mph    
Visibility 8 miles    
Events Snow    
T = Trace of Precipitation, MM = Missing Value Source: NWS Daily Summary

Daily Weather History Graph

Daily Weather History Graph

Search for Another Location

Airport:

Trip Planner

Search our weather history database for the weather conditions in past years. The results will help you decide how hot, cold, wet, or windy it might be!

Date:

Astronomy

Dec. 29, 2012 Rise Set
Actual Time 7:19 AM PST 4:43 PM PST
Civil Twilight 6:48 AM PST 5:14 PM PST
Nautical Twilight 6:15 AM PST 5:47 PM PST
Astronomical Twilight 5:42 AM PST 6:20 PM PST
Moon 6:21 PM PST (12/29) 7:56 AM PST (12/29)
Length of Visible Light 10h 25m
Length of Day
9h 24m
Full, 98% of the Moon is Illuminated
Dec 29
Full
Jan 4
Last Quarter
Jan 11
New
Jan 18
First Quarter
Jan 26
Full

Hourly Weather History & Observations

Time (PST) Temp. Windchill Dew Point Humidity Pressure Visibility Wind Dir Wind Speed Gust Speed Precip Events Conditions
12:55 AM 26.1 °F - 23.0 °F 88% 30.12 in 2.5 mi Calm Calm - 0.01 in Snow Light Snow
1:49 AM 26.6 °F - 24.8 °F 93% 30.06 in 5.0 mi Calm Calm - 0.00 in Snow Light Snow
1:55 AM 26.1 °F - 24.1 °F 92% 30.11 in 5.0 mi Calm Calm - 0.00 in Snow Light Snow
2:55 AM 26.1 °F - 24.1 °F 92% 30.11 in 8.0 mi Calm Calm - 0.00 in Snow Light Snow
3:55 AM 26.6 °F - 23.0 °F 86% 30.04 in 7.0 mi Calm Calm - N/A Snow Light Snow
4:55 AM 26.1 °F - 23.0 °F 88% 30.10 in 7.0 mi Calm Calm - 0.00 in Snow Light Snow
5:55 AM 26.1 °F - 23.0 °F 88% 30.11 in 5.0 mi Calm Calm - 0.00 in Snow Light Snow
6:55 AM 26.1 °F - 23.0 °F 88% 30.11 in 7.0 mi Calm Calm - 0.00 in Snow Light Snow
7:55 AM 26.1 °F - 23.0 °F 88% 30.12 in 8.0 mi Calm Calm - 0.00 in Snow Light Snow
8:55 AM 26.1 °F - 23.0 °F 88% 30.12 in 7.0 mi Calm Calm - 0.00 in Snow Light Snow
9:38 AM 26.6 °F - 21.2 °F 80% 30.07 in 8.0 mi Calm Calm - 0.00 in Snow Light Snow
9:55 AM 28.0 °F - 23.0 °F 81% 30.12 in 4.0 mi Calm Calm - 0.00 in Snow Light Snow
9:58 AM 28.4 °F - 23.0 °F 80% 30.07 in 3.0 mi Calm Calm - 0.00 in Snow Light Snow
10:06 AM 28.4 °F - 23.0 °F 80% 30.07 in 5.0 mi Calm Calm - 0.00 in Snow Light Snow
10:55 AM 28.0 °F - 23.0 °F 81% 30.10 in 9.0 mi Calm Calm - 0.00 in Snow Light Snow
11:55 AM 28.9 °F - 21.9 °F 75% 30.07 in 10.0 mi Calm Calm - 0.00 in   Mostly Cloudy
12:25 PM 30.2 °F - 23.0 °F 75% 30.00 in 10.0 mi Calm Calm - N/A   Mostly Cloudy
12:50 PM 30.2 °F - 23.0 °F 75% 30.00 in 10.0 mi Calm Calm - N/A   Overcast
12:55 PM 30.9 °F - 23.0 °F 72% 30.04 in 10.0 mi Calm Calm - N/A   Overcast
1:55 PM 30.9 °F - 23.0 °F 72% 30.03 in 10.0 mi Calm Calm - N/A   Overcast
2:55 PM 30.9 °F - 23.0 °F 72% 30.04 in 10.0 mi Calm Calm - N/A   Overcast
3:55 PM 30.9 °F - 23.0 °F 72% 30.04 in 10.0 mi Calm Calm - 0.00 in   Overcast
4:55 PM 30.9 °F 27.5 °F 23.0 °F 72% 30.03 in 10.0 mi SSE 3.5 mph - N/A   Overcast
5:55 PM 30.9 °F - 23.0 °F 72% 30.04 in 10.0 mi Calm Calm - N/A   Overcast
6:55 PM 30.0 °F 26.5 °F 24.1 °F 79% 30.04 in 9.0 mi South 3.5 mph - 0.00 in Snow Light Snow
7:55 PM 28.9 °F 25.2 °F 26.1 °F 89% 30.05 in 6.0 mi SSW 3.5 mph - 0.00 in Snow Light Snow
8:55 PM 28.0 °F - 25.0 °F 88% 30.06 in 7.0 mi Calm Calm - 0.00 in   Overcast
9:07 PM 28.4 °F - 24.8 °F 86% 30.00 in 7.0 mi Calm Calm - N/A   Overcast
9:55 PM 28.9 °F - 24.1 °F 82% 30.04 in 8.0 mi Calm Calm - N/A   Overcast
10:55 PM 28.0 °F 24.2 °F 24.1 °F 85% 30.04 in 9.0 mi South 3.5 mph - N/A   Overcast
11:55 PM 28.0 °F - 24.1 °F 85% 30.04 in 8.0 mi Calm Calm - N/A   Overcast